Flag for Turkmenistan Weather past 2 weeks in Daşoguz, Turkmenistan

32 °F


Feels Like: 32 °F
Forecast: 41 / 55 °F
Wind: 2 mph from Southeast

Location: Urgench

Current Time: Dec 1, 2015 at 11:31:11 AM

Latest Report: Dec 1, 2015 at 10:30 AM

Visibility: 0 mi

Pressure: 30.15 "Hg

Humidity: 100%

Dew point: 32 °F

Location of DaşoguzLocation

Historic Weather in Daşoguz — Graph


Daşoguz temperature yesterday

Maximum temperature yesterday: 46 °F (at 2:00 PM)
Minimum temperature yesterday: 34 °F (at 12:00 AM)
Average temperature yesterday: 40 °F

Past Weeks' High & Low Weather Summary

High57 °F (Nov 26, 2:30 PM)100% (Nov 17, 8:30 AM)30.51 "Hg (Nov 17, 8:30 AM)
Low23 °F (Nov 24, 7:30 AM)51% (Nov 16, 3:00 PM)29.80 "Hg (Nov 17, 9:00 PM)
Average37 °F84%30.20 "Hg
* Reported Nov 16 9:30 AM — Dec 1 9:30 AM, Daşoguz, Weather by CustomWeather, © 2015

Note: Actual official high and low records may vary slightly from our data, if they occured in-between our weather recording intervals... More about our weather records


Daşoguz weather history for previous 24 hours

Time TempWeatherWind HumidityBarometerVisibility
9:30 AM
Tue, Dec 1
32 °FIce fog.3 mph93%30.15 "Hg0 mi
9:00 AM32 °FIce fog.2 mph93%30.15 "Hg0 mi
8:30 AM32 °FIce fog.3 mph93%30.15 "Hg0 mi
8:00 AM30 °FIce fog.No wind100%30.15 "Hg0 mi
7:30 AM30 °FIce fog.1 mph100%30.15 "Hg0 mi
7:00 AM30 °FIce fog.2 mph100%30.15 "Hg0 mi
5:30 AM30 °FIce fog.1 mph100%30.12 "Hg1 mi
4:30 AM32 °FFog.2 mph100%30.12 "Hg1 mi
4:00 AM32 °FFog.2 mph100%30.12 "Hg1 mi
3:30 AM34 °FFog.3 mph93%30.12 "Hg1 mi
3:00 AM34 °FFog.2 mph93%30.12 "Hg1 mi
2:00 AM34 °FFog.3 mph93%30.12 "Hg1 mi
1:00 AM34 °FFog.3 mph100%30.12 "Hg1 mi
11:30 PM
Mon, Nov 30
36 °FFog.2 mph93%30.12 "Hg2 mi
11:00 PM36 °FFog.2 mph93%30.15 "Hg2 mi
10:30 PM36 °FFog.3 mph93%30.15 "Hg2 mi
10:00 PM37 °FFog.3 mph93%30.12 "Hg2 mi
9:30 PM37 °FFog.5 mph93%30.12 "Hg2 mi
9:00 PM37 °FClear.3 mph93%30.12 "Hg4 mi
8:30 PM39 °FClear.5 mph87%30.12 "Hg4 mi
8:00 PM41 °FClear.6 mph87%30.12 "Hg4 mi
7:30 PM41 °FClear.6 mph87%30.12 "Hg4 mi
7:00 PM41 °FClear.5 mph87%30.12 "Hg4 mi
6:30 PM43 °FClear.6 mph81%30.12 "Hg4 mi
6:00 PM43 °FClear.5 mph81%30.12 "Hg4 mi
5:30 PM45 °FClear.7 mph76%30.12 "Hg4 mi
5:00 PM46 °FClear.8 mph71%30.12 "Hg4 mi
4:30 PM46 °FClear.8 mph71%30.12 "Hg4 mi
4:00 PM46 °FClear.9 mph71%30.12 "Hg4 mi
3:30 PM46 °FScattered clouds.10 mph71%30.12 "Hg4 mi
3:00 PM46 °FPartly sunny.9 mph71%30.12 "Hg4 mi
2:30 PM46 °FPartly sunny.9 mph71%30.12 "Hg4 mi
2:00 PM46 °FPartly sunny.8 mph71%30.15 "Hg4 mi
1:30 PM45 °FPartly sunny.9 mph76%30.15 "Hg5 mi
12:30 PM45 °FPartly sunny.10 mph76%30.15 "Hg5 mi
12:00 PM43 °FPartly sunny.12 mph81%30.18 "Hg5 mi
11:30 AM43 °FPartly sunny.10 mph81%30.18 "Hg4 mi
Weather by CustomWeather, © 2015

See weather overviewHow to use our weather pages